Time,TemperatureF,DewpointF,PressureIn,WindDirection,WindDirectionDegrees,WindSpeedMPH,WindSpeedGustMPH,Humidity,HourlyPrecipIn,Conditions,Clouds,dailyrainin,SoftwareType,DateUTC
2013-04-02 00:02:00,25.5,-0.2,29.99,NW,306,3.6,5.8,32,0.00,,CLR,0.00,VWS V14.01,2013-04-02 05:02:00,
2013-04-02 00:07:00,25.5,-0.2,29.99,NW,304,2.7,3.6,32,0.00,,CLR,0.00,VWS V14.01,2013-04-02 05:07:00,
2013-04-02 00:12:00,25.3,-0.4,29.99,WNW,302,2.7,5.4,32,0.00,,CLR,0.00,VWS V14.01,2013-04-02 05:12:00,
2013-04-02 00:18:00,25.3,-0.4,29.99,WNW,298,3.1,3.1,32,0.00,,CLR,0.00,VWS V14.01,2013-04-02 05:18:00,
2013-04-02 00:23:00,25.3,-0.4,29.99,WNW,300,4.0,4.9,32,0.00,,CLR,0.00,VWS V14.01,2013-04-02 05:23:00,
2013-04-02 00:28:00,25.3,-0.4,29.99,NW,306,3.6,5.4,32,0.00,,CLR,0.00,VWS V14.01,2013-04-02 05:28:00,
2013-04-02 00:34:00,25.3,-0.4,29.99,NW,304,4.9,6.3,32,0.00,,CLR,0.00,VWS V14.01,2013-04-02 05:34:00,
2013-04-02 00:39:00,25.3,-0.4,29.99,NW,305,5.4,7.6,32,0.00,,CLR,0.00,VWS V14.01,2013-04-02 05:39:00,
2013-04-02 00:44:00,25.3,-0.4,29.99,WNW,291,8.1,8.1,32,0.00,,CLR,0.00,VWS V14.01,2013-04-02 05:44:00,
2013-04-02 00:50:00,25.3,-0.4,29.99,NW,305,4.0,5.8,32,0.00,,CLR,0.00,VWS V14.01,2013-04-02 05:50:00,
2013-04-02 00:55:00,25.2,-0.5,29.99,WNW,294,4.0,4.9,32,0.00,,CLR,0.00,VWS V14.01,2013-04-02 05:55:00,
2013-04-02 01:01:00,25.2,-0.5,29.99,WNW,296,3.6,4.0,32,0.00,,CLR,0.00,VWS V14.01,2013-04-02 06:01:00,
2013-04-02 01:07:00,25.0,-0.7,29.99,WNW,300,4.9,4.9,32,0.00,,CLR,0.00,VWS V14.01,2013-04-02 06:07:00,
2013-04-02 01:12:00,25.0,-0.7,29.99,WNW,302,3.6,5.8,32,0.00,,CLR,0.00,VWS V14.01,2013-04-02 06:12:00,
2013-04-02 01:18:00,25.0,-0.7,29.99,WNW,299,4.0,5.4,32,0.00,,CLR,0.00,VWS V14.01,2013-04-02 06:18:00,
2013-04-02 01:23:00,24.8,-0.2,29.99,WNW,294,3.6,3.6,33,0.00,,CLR,0.00,VWS V14.01,2013-04-02 06:23:00,
2013-04-02 01:29:00,24.8,-0.2,29.99,WNW,301,4.9,5.8,33,0.00,,CLR,0.00,VWS V14.01,2013-04-02 06:29:00,
2013-04-02 01:35:00,24.8,-0.2,29.99,WNW,287,3.1,4.0,33,0.00,,CLR,0.00,VWS V14.01,2013-04-02 06:35:00,
2013-04-02 01:40:00,24.6,-0.4,29.99,WNW,298,5.4,5.4,33,0.00,,CLR,0.00,VWS V14.01,2013-04-02 06:40:00,
2013-04-02 01:45:00,24.6,-0.4,29.99,NW,304,4.5,8.3,33,0.00,,CLR,0.00,VWS V14.01,2013-04-02 06:45:00,
2013-04-02 01:50:00,24.8,-0.2,29.99,WNW,303,6.3,6.3,33,0.00,,CLR,0.00,VWS V14.01,2013-04-02 06:50:00,
2013-04-02 01:55:00,24.8,-0.2,29.99,NW,314,6.3,6.3,33,0.00,,CLR,0.00,VWS V14.01,2013-04-02 06:55:00,
2013-04-02 02:00:00,24.8,-0.2,29.99,West,270,8.7,8.7,33,0.00,,CLR,0.00,VWS V14.01,2013-04-02 07:00:00,
2013-04-02 02:05:00,24.8,-0.2,29.99,WNW,290,5.4,6.7,33,0.00,,CLR,0.00,VWS V14.01,2013-04-02 07:05:00,
2013-04-02 02:11:00,24.6,-0.4,29.99,WNW,294,6.3,6.3,33,0.00,,CLR,0.00,VWS V14.01,2013-04-02 07:11:00,
2013-04-02 02:16:00,24.6,-0.4,29.99,WNW,295,6.3,6.3,33,0.00,,CLR,0.00,VWS V14.01,2013-04-02 07:16:00,
2013-04-02 02:22:00,24.6,-0.4,29.99,WNW,299,7.6,8.1,33,0.00,,CLR,0.00,VWS V14.01,2013-04-02 07:22:00,
2013-04-02 02:27:00,24.4,-0.5,29.99,WNW,300,10.5,10.5,33,0.00,,CLR,0.00,VWS V14.01,2013-04-02 07:27:00,
2013-04-02 02:32:00,24.4,-0.5,29.99,NW,309,6.3,6.3,33,0.00,,CLR,0.00,VWS V14.01,2013-04-02 07:32:00,
2013-04-02 02:37:00,24.4,-0.5,29.99,NW,304,4.9,6.7,33,0.00,,CLR,0.00,VWS V14.01,2013-04-02 07:37:00,
2013-04-02 02:43:00,24.4,-0.5,29.99,NW,305,8.1,8.1,33,0.00,,CLR,0.00,VWS V14.01,2013-04-02 07:43:00,
2013-04-02 02:49:00,24.3,-0.7,29.99,NW,304,5.8,6.7,33,0.00,,CLR,0.00,VWS V14.01,2013-04-02 07:49:00,
2013-04-02 02:55:00,24.3,-0.1,29.99,NW,304,6.3,8.3,34,0.00,,CLR,0.00,VWS V14.01,2013-04-02 07:55:00,
2013-04-02 03:00:00,24.3,-0.1,29.99,NW,318,8.3,8.3,34,0.00,,CLR,0.00,VWS V14.01,2013-04-02 08:00:00,
2013-04-02 03:05:00,24.3,-0.1,29.99,WNW,300,5.8,6.3,34,0.00,,CLR,0.00,VWS V14.01,2013-04-02 08:05:00,
2013-04-02 03:10:00,24.1,-0.2,29.99,NW,310,6.3,8.3,34,0.00,,CLR,0.00,VWS V14.01,2013-04-02 08:10:00,
2013-04-02 03:16:00,24.1,-0.2,29.99,WNW,299,6.3,10.1,34,0.00,,CLR,0.00,VWS V14.01,2013-04-02 08:16:00,
2013-04-02 03:22:00,24.1,-0.2,29.99,WNW,303,7.6,8.3,34,0.00,,CLR,0.00,VWS V14.01,2013-04-02 08:22:00,
2013-04-02 03:28:00,24.1,-0.2,29.99,NW,307,7.6,7.6,34,0.00,,CLR,0.00,VWS V14.01,2013-04-02 08:28:00,
2013-04-02 03:34:00,23.9,-0.4,29.99,WNW,303,6.3,6.3,34,0.00,,CLR,0.00,VWS V14.01,2013-04-02 08:34:00,
2013-04-02 03:39:00,23.9,-0.4,29.99,WNW,302,8.1,9.6,34,0.00,,CLR,0.00,VWS V14.01,2013-04-02 08:39:00,
2013-04-02 03:44:00,23.7,-0.5,29.99,NW,311,7.6,12.3,34,0.00,,CLR,0.00,VWS V14.01,2013-04-02 08:44:00,
2013-04-02 03:49:00,23.7,-0.5,29.99,WNW,301,5.8,8.1,34,0.00,,CLR,0.00,VWS V14.01,2013-04-02 08:49:00,
2013-04-02 03:55:00,23.7,-0.5,29.99,NW,306,8.1,8.3,34,0.00,,CLR,0.00,VWS V14.01,2013-04-02 08:55:00,
2013-04-02 04:00:00,23.7,-0.5,29.99,WNW,303,7.6,8.1,34,0.00,,CLR,0.00,VWS V14.01,2013-04-02 09:00:00,
2013-04-02 04:05:00,23.7,-0.5,29.99,NW,306,5.8,7.2,34,0.00,,CLR,0.00,VWS V14.01,2013-04-02 09:05:00,
2013-04-02 04:10:00,23.5,-0.7,29.99,NW,312,5.8,6.3,34,0.00,,CLR,0.00,VWS V14.01,2013-04-02 09:10:00,
2013-04-02 04:17:00,23.5,-0.1,29.99,NW,307,6.3,8.1,35,0.00,,CLR,0.00,VWS V14.01,2013-04-02 09:17:00,
2013-04-02 04:23:00,23.5,-0.1,29.99,WNW,301,5.8,8.7,35,0.00,,CLR,0.00,VWS V14.01,2013-04-02 09:23:00,
2013-04-02 04:28:00,23.5,-0.1,29.99,NW,307,7.6,11.0,35,0.00,,CLR,0.00,VWS V14.01,2013-04-02 09:28:00,
2013-04-02 04:34:00,23.4,-0.2,29.99,NW,305,6.7,8.1,35,0.00,,CLR,0.00,VWS V14.01,2013-04-02 09:34:00,
2013-04-02 04:40:00,23.4,-0.2,29.99,NW,309,8.3,8.3,35,0.00,,CLR,0.00,VWS V14.01,2013-04-02 09:40:00,
2013-04-02 04:46:00,23.2,-0.4,29.99,WNW,303,5.8,8.3,35,0.00,,CLR,0.00,VWS V14.01,2013-04-02 09:46:00,
2013-04-02 04:52:00,23.2,-0.4,29.99,NW,304,6.3,6.3,35,0.00,,CLR,0.00,VWS V14.01,2013-04-02 09:52:00,
2013-04-02 04:57:00,23.0,0.0,29.99,NW,306,5.8,8.1,36,0.00,,CLR,0.00,VWS V14.01,2013-04-02 09:57:00,
2013-04-02 05:02:00,23.0,0.0,29.99,WNW,301,5.8,8.7,36,0.00,,CLR,0.00,VWS V14.01,2013-04-02 10:02:00,
2013-04-02 05:07:00,23.0,0.0,29.99,NW,306,5.8,7.6,36,0.00,,CLR,0.00,VWS V14.01,2013-04-02 10:07:00,
2013-04-02 05:13:00,22.8,-0.1,29.99,NW,305,7.6,8.3,36,0.00,,CLR,0.00,VWS V14.01,2013-04-02 10:13:00,
2013-04-02 05:18:00,22.8,-0.1,29.99,WNW,298,5.8,6.3,36,0.00,,CLR,0.00,VWS V14.01,2013-04-02 10:18:00,
2013-04-02 05:23:00,22.8,-0.1,29.99,NW,312,5.4,8.1,36,0.00,,CLR,0.00,VWS V14.01,2013-04-02 10:23:00,
2013-04-02 05:28:00,22.8,-0.1,29.99,WNW,299,8.3,8.3,36,0.00,,CLR,0.00,VWS V14.01,2013-04-02 10:28:00,
2013-04-02 05:34:00,22.8,-0.1,29.99,NW,309,5.8,9.6,36,0.00,,CLR,0.00,VWS V14.01,2013-04-02 10:34:00,
2013-04-02 05:40:00,22.8,-0.1,29.99,NW,307,7.6,10.5,36,0.00,,CLR,0.00,VWS V14.01,2013-04-02 10:40:00,
2013-04-02 05:45:00,22.6,-0.3,30.02,WNW,297,8.1,8.1,36,0.00,,CLR,0.00,VWS V14.01,2013-04-02 10:45:00,
2013-04-02 05:51:00,22.6,-0.3,30.02,WNW,299,8.1,8.1,36,0.00,,CLR,0.00,VWS V14.01,2013-04-02 10:51:00,
2013-04-02 05:56:00,22.6,-0.3,30.02,NW,306,5.4,5.8,36,0.00,,CLR,0.00,VWS V14.01,2013-04-02 10:56:00,
2013-04-02 06:02:00,22.5,-0.4,30.02,NW,310,6.3,7.6,36,0.00,,CLR,0.00,VWS V14.01,2013-04-02 11:02:00,
2013-04-02 06:08:00,22.5,-0.4,30.02,WNW,303,5.8,7.6,36,0.00,,CLR,0.00,VWS V14.01,2013-04-02 11:08:00,
2013-04-02 06:13:00,22.5,-0.4,30.02,NW,304,7.2,7.6,36,0.00,,CLR,0.00,VWS V14.01,2013-04-02 11:13:00,
2013-04-02 06:18:00,22.3,-0.6,30.02,NW,308,5.8,10.1,36,0.00,,CLR,0.00,VWS V14.01,2013-04-02 11:18:00,
2013-04-02 06:24:00,22.3,-0.6,30.02,NW,307,6.3,7.6,36,0.00,,CLR,0.00,VWS V14.01,2013-04-02 11:24:00,
2013-04-02 06:30:00,22.3,-0.6,30.02,NW,309,5.4,8.1,36,0.00,,CLR,0.00,VWS V14.01,2013-04-02 11:30:00,
2013-04-02 06:35:00,22.1,-0.2,30.02,WNW,301,5.8,10.5,37,0.00,,CLR,0.00,VWS V14.01,2013-04-02 11:35:00,
2013-04-02 06:40:00,22.1,-0.2,30.02,NW,309,6.3,8.1,37,0.00,,CLR,0.00,VWS V14.01,2013-04-02 11:40:00,
2013-04-02 06:46:00,22.1,-0.2,30.02,NW,305,6.3,6.3,37,0.00,,CLR,0.00,VWS V14.01,2013-04-02 11:46:00,
2013-04-02 06:51:00,22.1,-0.2,30.02,WNW,301,5.8,7.6,37,0.00,,CLR,0.00,VWS V14.01,2013-04-02 11:51:00,
2013-04-02 06:56:00,21.9,-0.3,30.02,NW,319,7.6,7.6,37,0.00,,CLR,0.00,VWS V14.01,2013-04-02 11:56:00,
2013-04-02 07:02:00,22.1,-0.2,30.02,NW,316,8.1,10.1,37,0.00,,CLR,0.00,VWS V14.01,2013-04-02 12:02:00,
2013-04-02 07:07:00,22.1,-0.2,30.02,NW,308,5.8,8.1,37,0.00,,CLR,0.00,VWS V14.01,2013-04-02 12:07:00,
2013-04-02 07:12:00,22.1,-0.2,30.02,NW,307,4.0,7.6,37,0.00,,CLR,0.00,VWS V14.01,2013-04-02 12:12:00,
2013-04-02 07:17:00,22.3,0.0,30.05,NW,320,8.3,8.3,37,0.00,,CLR,0.00,VWS V14.01,2013-04-02 12:17:00,
2013-04-02 07:22:00,22.3,0.0,30.05,WNW,292,5.4,8.3,37,0.00,,CLR,0.00,VWS V14.01,2013-04-02 12:22:00,
2013-04-02 07:28:00,22.5,0.1,30.05,NW,305,8.1,8.3,37,0.00,,CLR,0.00,VWS V14.01,2013-04-02 12:28:00,
2013-04-02 07:33:00,22.6,0.3,30.05,NW,304,4.9,5.8,37,0.00,,CLR,0.00,VWS V14.01,2013-04-02 12:33:00,
2013-04-02 07:39:00,22.6,-0.3,30.05,NW,317,5.8,8.3,36,0.00,,CLR,0.00,VWS V14.01,2013-04-02 12:39:00,
2013-04-02 07:44:00,22.8,-0.1,30.05,WNW,301,8.7,8.7,36,0.00,,CLR,0.00,VWS V14.01,2013-04-02 12:44:00,
2013-04-02 07:49:00,22.8,-0.1,30.05,NW,318,8.7,10.1,36,0.00,,CLR,0.00,VWS V14.01,2013-04-02 12:49:00,
2013-04-02 07:55:00,23.0,-0.6,30.05,WNW,300,6.3,8.3,35,0.00,,CLR,0.00,VWS V14.01,2013-04-02 12:55:00,
2013-04-02 08:01:00,23.2,-0.4,30.08,NW,314,6.3,10.5,35,0.00,,CLR,0.00,VWS V14.01,2013-04-02 13:01:00,
2013-04-02 08:06:00,23.4,-0.2,30.08,NW,310,6.3,7.6,35,0.00,,CLR,0.00,VWS V14.01,2013-04-02 13:06:00,
2013-04-02 08:12:00,23.5,-0.1,30.08,NW,306,6.3,8.1,35,0.00,,CLR,0.00,VWS V14.01,2013-04-02 13:12:00,
2013-04-02 08:17:00,23.5,-0.1,30.08,WNW,298,6.3,7.6,35,0.00,,CLR,0.00,VWS V14.01,2013-04-02 13:17:00,
2013-04-02 08:22:00,23.7,0.1,30.08,NW,313,6.3,8.7,35,0.00,,CLR,0.00,VWS V14.01,2013-04-02 13:22:00,
2013-04-02 08:28:00,24.1,0.4,30.08,NW,317,8.1,9.2,35,0.00,,CLR,0.00,VWS V14.01,2013-04-02 13:28:00,
2013-04-02 08:33:00,24.1,-0.2,30.05,NW,304,5.8,8.1,34,0.00,,CLR,0.00,VWS V14.01,2013-04-02 13:33:00,
2013-04-02 08:38:00,24.3,-0.1,30.05,WNW,296,6.3,6.3,34,0.00,,CLR,0.00,VWS V14.01,2013-04-02 13:38:00,
2013-04-02 08:43:00,24.4,0.1,30.05,WNW,298,8.3,10.5,34,0.00,,CLR,0.00,VWS V14.01,2013-04-02 13:43:00,
2013-04-02 08:49:00,24.6,0.3,30.05,WNW,298,4.0,5.8,34,0.00,,CLR,0.00,VWS V14.01,2013-04-02 13:49:00,
2013-04-02 08:54:00,24.8,0.4,30.05,NW,305,5.4,5.4,34,0.00,,CLR,0.00,VWS V14.01,2013-04-02 13:54:00,
2013-04-02 09:00:00,25.2,0.8,30.08,NW,305,4.9,7.6,34,0.00,,CLR,0.00,VWS V14.01,2013-04-02 14:00:00,
2013-04-02 09:05:00,25.3,0.9,30.08,SW,227,5.8,8.7,34,0.00,,CLR,0.00,VWS V14.01,2013-04-02 14:05:00,
2013-04-02 09:11:00,25.3,0.3,30.08,NNW,338,5.4,9.6,33,0.00,,CLR,0.00,VWS V14.01,2013-04-02 14:11:00,
2013-04-02 09:17:00,25.7,0.6,30.08,WNW,292,4.0,4.0,33,0.00,,CLR,0.00,VWS V14.01,2013-04-02 14:17:00,
2013-04-02 09:22:00,25.9,0.8,30.08,WNW,297,5.4,8.1,33,0.00,,CLR,0.00,VWS V14.01,2013-04-02 14:22:00,
2013-04-02 09:28:00,26.1,0.9,30.08,NW,311,8.7,8.7,33,0.00,,CLR,0.00,VWS V14.01,2013-04-02 14:28:00,
2013-04-02 09:34:00,26.2,1.1,30.08,NW,312,3.1,5.8,33,0.00,,CLR,0.00,VWS V14.01,2013-04-02 14:34:00,
2013-04-02 09:39:00,26.6,1.4,30.08,NW,317,6.3,6.3,33,0.00,,CLR,0.00,VWS V14.01,2013-04-02 14:39:00,
2013-04-02 09:44:00,26.8,1.5,30.08,NW,312,5.4,8.1,33,0.00,,CLR,0.00,VWS V14.01,2013-04-02 14:44:00,
2013-04-02 09:49:00,26.8,0.9,30.08,NW,304,4.0,4.9,32,0.00,,CLR,0.00,VWS V14.01,2013-04-02 14:49:00,
2013-04-02 09:54:00,27.0,1.7,30.08,West,277,2.7,4.9,33,0.00,,CLR,0.00,VWS V14.01,2013-04-02 14:54:00,
2013-04-02 10:00:00,27.3,2.0,30.11,NW,308,7.6,7.6,33,0.00,,CLR,0.00,VWS V14.01,2013-04-02 15:00:00,
2013-04-02 10:06:00,27.3,1.4,30.11,NW,304,2.7,5.8,32,0.00,,CLR,0.00,VWS V14.01,2013-04-02 15:06:00,
2013-04-02 10:11:00,27.5,1.5,30.11,NW,313,8.3,8.3,32,0.00,,CLR,0.00,VWS V14.01,2013-04-02 15:11:00,
2013-04-02 10:17:00,27.7,1.7,30.11,NW,307,3.1,5.8,32,0.00,,CLR,0.00,VWS V14.01,2013-04-02 15:17:00,
2013-04-02 10:22:00,27.9,1.8,30.11,West,281,5.4,5.8,32,0.00,,CLR,0.00,VWS V14.01,2013-04-02 15:22:00,
2013-04-02 10:27:00,28.0,2.0,30.11,NW,316,5.8,10.5,32,0.00,,CLR,0.00,VWS V14.01,2013-04-02 15:27:00,
2013-04-02 10:32:00,28.0,2.0,30.11,NW,313,5.8,8.1,32,0.00,,CLR,0.00,VWS V14.01,2013-04-02 15:32:00,
2013-04-02 10:38:00,28.4,2.3,30.11,NW,310,6.3,6.3,32,0.00,,CLR,0.00,VWS V14.01,2013-04-02 15:38:00,
2013-04-02 10:45:00,28.9,2.8,30.08,WNW,300,3.6,5.8,32,0.00,,CLR,0.00,VWS V14.01,2013-04-02 15:45:00,
2013-04-02 10:51:00,29.3,2.4,30.08,West,271,5.8,5.8,31,0.00,,CLR,0.00,VWS V14.01,2013-04-02 15:51:00,
2013-04-02 10:56:00,29.5,2.6,30.08,NW,318,4.0,6.3,31,0.00,,CLR,0.00,VWS V14.01,2013-04-02 15:56:00,
2013-04-02 11:01:00,29.5,2.6,30.11,WNW,302,5.8,8.7,31,0.00,,CLR,0.00,VWS V14.01,2013-04-02 16:01:00,
2013-04-02 11:07:00,29.5,2.6,30.11,SW,217,2.7,3.6,31,0.00,,CLR,0.00,VWS V14.01,2013-04-02 16:07:00,
2013-04-02 11:13:00,30.0,3.1,30.11,NW,306,3.1,7.6,31,0.00,,CLR,0.00,VWS V14.01,2013-04-02 16:13:00,
2013-04-02 11:18:00,30.2,3.2,30.11,WNW,297,3.6,4.9,31,0.00,,CLR,0.00,VWS V14.01,2013-04-02 16:18:00,
2013-04-02 11:25:00,30.6,2.8,30.11,WNW,295,5.4,8.3,30,0.00,,CLR,0.00,VWS V14.01,2013-04-02 16:25:00,
2013-04-02 11:31:00,30.6,2.8,30.08,WNW,294,5.4,5.4,30,0.00,,CLR,0.00,VWS V14.01,2013-04-02 16:31:00,
2013-04-02 11:37:00,30.9,3.1,30.08,West,278,2.7,4.0,30,0.00,,CLR,0.00,VWS V14.01,2013-04-02 16:37:00,
2013-04-02 11:43:00,31.1,3.3,30.08,NW,305,5.8,8.7,30,0.00,,CLR,0.00,VWS V14.01,2013-04-02 16:43:00,
2013-04-02 11:49:00,31.1,3.3,30.05,WNW,284,5.8,8.1,30,0.00,,CLR,0.00,VWS V14.01,2013-04-02 16:49:00,
2013-04-02 11:55:00,31.5,3.6,30.05,WNW,293,2.7,5.8,30,0.00,,CLR,0.00,VWS V14.01,2013-04-02 16:55:00,
2013-04-02 12:02:00,32.0,4.1,30.05,WSW,237,5.4,6.3,30,0.00,,CLR,0.00,VWS V14.01,2013-04-02 17:02:00,
2013-04-02 12:08:00,32.2,4.2,30.05,WNW,301,8.1,8.1,30,0.00,,CLR,0.00,VWS V14.01,2013-04-02 17:08:00,
2013-04-02 12:14:00,32.2,4.2,30.05,NNW,341,5.8,7.6,30,0.00,,CLR,0.00,VWS V14.01,2013-04-02 17:14:00,
2013-04-02 12:19:00,32.2,4.2,30.05,WNW,301,6.3,8.3,30,0.00,,CLR,0.00,VWS V14.01,2013-04-02 17:19:00,
2013-04-02 12:24:00,32.2,2.8,30.05,NW,309,6.3,8.3,28,0.00,,CLR,0.00,VWS V14.01,2013-04-02 17:24:00,
2013-04-02 12:30:00,32.5,4.6,30.05,NW,313,6.3,7.6,30,0.00,,CLR,0.00,VWS V14.01,2013-04-02 17:30:00,
2013-04-02 12:37:00,32.5,4.6,30.05,West,266,3.1,5.4,30,0.00,,CLR,0.00,VWS V14.01,2013-04-02 17:37:00,
2013-04-02 12:42:00,32.9,3.4,30.05,NW,323,5.4,8.7,28,0.00,,CLR,0.00,VWS V14.01,2013-04-02 17:42:00,
2013-04-02 12:48:00,33.3,3.7,30.05,WNW,303,7.6,8.1,28,0.00,,CLR,0.00,VWS V14.01,2013-04-02 17:48:00,
2013-04-02 12:54:00,33.3,3.7,30.05,WNW,292,8.1,8.3,28,0.00,,CLR,0.00,VWS V14.01,2013-04-02 17:54:00,
2013-04-02 12:59:00,33.1,3.5,30.05,NNW,336,8.1,12.3,28,0.00,,CLR,0.00,VWS V14.01,2013-04-02 17:59:00,
2013-04-02 13:04:00,33.3,3.7,30.05,WNW,302,5.8,6.3,28,0.00,,CLR,0.00,VWS V14.01,2013-04-02 18:04:00,
2013-04-02 13:10:00,33.8,3.4,30.05,WSW,240,5.4,6.3,27,0.00,,CLR,0.00,VWS V14.01,2013-04-02 18:10:00,
2013-04-02 13:16:00,34.0,1.9,30.05,NW,314,8.7,14.1,25,0.00,,CLR,0.00,VWS V14.01,2013-04-02 18:16:00,
2013-04-02 13:22:00,33.8,3.4,30.05,West,261,4.0,5.8,27,0.00,,CLR,0.00,VWS V14.01,2013-04-02 18:22:00,
2013-04-02 13:27:00,34.0,1.9,30.05,NW,320,8.1,11.0,25,0.00,,CLR,0.00,VWS V14.01,2013-04-02 18:27:00,
2013-04-02 13:33:00,34.2,2.0,30.05,WNW,295,10.5,13.2,25,0.00,,CLR,0.00,VWS V14.01,2013-04-02 18:33:00,
2013-04-02 13:39:00,33.6,1.6,30.05,WNW,289,7.6,10.5,25,0.00,,CLR,0.00,VWS V14.01,2013-04-02 18:39:00,
2013-04-02 13:45:00,34.0,1.9,30.05,WNW,298,6.7,6.7,25,0.00,,CLR,0.00,VWS V14.01,2013-04-02 18:45:00,
2013-04-02 13:50:00,34.2,2.0,30.05,WNW,302,11.0,12.3,25,0.00,,CLR,0.00,VWS V14.01,2013-04-02 18:50:00,
2013-04-02 13:55:00,34.2,2.0,30.05,NNW,343,5.4,8.1,25,0.00,,CLR,0.00,VWS V14.01,2013-04-02 18:55:00,
2013-04-02 14:02:00,34.3,2.2,30.05,WNW,300,6.3,8.1,25,0.00,,FEW120,0.00,VWS V14.01,2013-04-02 19:02:00,
2013-04-02 14:08:00,34.3,2.2,30.05,WNW,300,4.0,8.3,25,0.00,,FEW120,0.00,VWS V14.01,2013-04-02 19:08:00,
2013-04-02 14:13:00,34.5,2.3,30.05,North,353,13.6,15.9,25,0.00,,FEW120,0.00,VWS V14.01,2013-04-02 19:13:00,
2013-04-02 14:19:00,34.3,2.2,30.05,NNW,332,10.5,11.0,25,0.00,,FEW120,0.00,VWS V14.01,2013-04-02 19:19:00,
2013-04-02 14:25:00,34.5,2.3,30.05,North,6,11.0,11.0,25,0.00,,FEW120,0.00,VWS V14.01,2013-04-02 19:25:00,
2013-04-02 14:30:00,34.7,2.5,30.05,NW,313,8.7,10.5,25,0.00,,FEW120,0.00,VWS V14.01,2013-04-02 19:30:00,
2013-04-02 14:37:00,34.7,2.5,30.05,NNW,332,10.5,10.5,25,0.00,,FEW120,0.00,VWS V14.01,2013-04-02 19:37:00,
2013-04-02 14:42:00,34.9,2.6,30.05,WNW,299,6.7,6.7,25,0.00,,FEW120,0.00,VWS V14.01,2013-04-02 19:42:00,
2013-04-02 14:47:00,35.1,2.8,30.05,WNW,295,8.3,8.3,25,0.00,,FEW120,0.00,VWS V14.01,2013-04-02 19:47:00,
2013-04-02 14:53:00,35.1,2.8,30.05,NW,319,14.1,14.1,25,0.00,,FEW120,0.00,VWS V14.01,2013-04-02 19:53:00,
2013-04-02 14:59:00,35.1,2.8,30.05,NNW,341,10.1,13.6,25,0.00,,FEW120,0.00,VWS V14.01,2013-04-02 19:59:00,
2013-04-02 15:05:00,34.9,2.6,30.05,NNW,335,12.8,13.2,25,0.00,,CLR,0.00,VWS V14.01,2013-04-02 20:05:00,
2013-04-02 15:10:00,34.9,2.6,30.05,NW,309,6.3,7.6,25,0.00,,CLR,0.00,VWS V14.01,2013-04-02 20:10:00,
2013-04-02 15:16:00,35.1,2.8,30.05,NW,318,10.5,12.3,25,0.00,,CLR,0.00,VWS V14.01,2013-04-02 20:16:00,
2013-04-02 15:22:00,35.2,3.0,30.05,NNW,328,8.3,12.8,25,0.00,,CLR,0.00,VWS V14.01,2013-04-02 20:22:00,
2013-04-02 15:27:00,35.4,3.1,30.05,NW,307,5.8,6.3,25,0.00,,CLR,0.00,VWS V14.01,2013-04-02 20:27:00,
2013-04-02 15:33:00,35.4,3.1,30.05,North,357,8.7,9.6,25,0.00,,CLR,0.00,VWS V14.01,2013-04-02 20:33:00,
2013-04-02 15:38:00,35.4,3.1,30.05,NNW,340,8.1,11.0,25,0.00,,CLR,0.00,VWS V14.01,2013-04-02 20:38:00,
2013-04-02 15:44:00,35.4,3.1,30.05,NW,314,8.1,8.1,25,0.00,,CLR,0.00,VWS V14.01,2013-04-02 20:44:00,
2013-04-02 15:50:00,35.8,2.5,30.05,North,8,8.3,10.5,24,0.00,,CLR,0.00,VWS V14.01,2013-04-02 20:50:00,
2013-04-02 15:57:00,35.8,2.5,30.05,WNW,302,12.3,12.3,24,0.00,,CLR,0.00,VWS V14.01,2013-04-02 20:57:00,
2013-04-02 16:02:00,35.8,2.5,30.05,WNW,299,10.5,10.5,24,0.00,,CLR,0.00,VWS V14.01,2013-04-02 21:02:00,
2013-04-02 16:07:00,36.1,2.8,30.05,NNW,328,9.2,9.2,24,0.00,,CLR,0.00,VWS V14.01,2013-04-02 21:07:00,
2013-04-02 16:12:00,36.0,2.7,30.05,NW,304,8.1,8.7,24,0.00,,CLR,0.00,VWS V14.01,2013-04-02 21:12:00,
2013-04-02 16:18:00,36.1,2.8,30.05,NNW,342,10.5,13.2,24,0.00,,CLR,0.00,VWS V14.01,2013-04-02 21:18:00,
2013-04-02 16:24:00,36.0,2.7,30.05,North,353,11.9,11.9,24,0.00,,CLR,0.00,VWS V14.01,2013-04-02 21:24:00,
2013-04-02 16:29:00,36.1,2.8,30.05,NW,308,13.2,13.2,24,0.00,,CLR,0.00,VWS V14.01,2013-04-02 21:29:00,
2013-04-02 16:35:00,35.8,2.5,30.05,NW,326,11.0,13.2,24,0.00,,CLR,0.00,VWS V14.01,2013-04-02 21:35:00,
2013-04-02 16:40:00,35.8,2.5,30.05,North,353,8.3,8.3,24,0.00,,CLR,0.00,VWS V14.01,2013-04-02 21:40:00,
2013-04-02 16:46:00,36.1,2.8,30.08,NW,314,7.6,8.1,24,0.00,,CLR,0.00,VWS V14.01,2013-04-02 21:46:00,
2013-04-02 16:52:00,36.0,2.7,30.08,NW,324,10.1,12.8,24,0.00,,CLR,0.00,VWS V14.01,2013-04-02 21:52:00,
2013-04-02 16:58:00,36.0,0.8,30.05,NW,314,8.7,11.0,22,0.00,,CLR,0.00,VWS V14.01,2013-04-02 21:58:00,
2013-04-02 17:03:00,36.0,2.7,30.05,NNW,348,12.8,13.2,24,0.00,,SCT060,0.00,VWS V14.01,2013-04-02 22:03:00,
2013-04-02 17:08:00,36.0,0.8,30.05,NW,313,5.8,10.5,22,0.00,,SCT060,0.00,VWS V14.01,2013-04-02 22:08:00,
2013-04-02 17:14:00,36.0,2.7,30.08,NW,318,11.0,11.0,24,0.00,,SCT060,0.00,VWS V14.01,2013-04-02 22:14:00,
2013-04-02 17:19:00,35.8,2.5,30.08,NNW,346,13.2,13.2,24,0.00,,SCT060,0.00,VWS V14.01,2013-04-02 22:19:00,
2013-04-02 17:25:00,35.8,2.5,30.08,North,353,9.6,15.0,24,0.00,,SCT060,0.00,VWS V14.01,2013-04-02 22:25:00,
2013-04-02 17:30:00,35.8,2.5,30.05,WNW,297,5.8,8.7,24,0.00,,SCT060,0.00,VWS V14.01,2013-04-02 22:30:00,
2013-04-02 17:35:00,35.8,2.5,30.05,NW,308,7.6,10.5,24,0.00,,SCT060,0.00,VWS V14.01,2013-04-02 22:35:00,
2013-04-02 17:42:00,35.6,2.4,30.05,NW,304,5.8,8.1,24,0.00,,SCT060,0.00,VWS V14.01,2013-04-02 22:42:00,
2013-04-02 17:47:00,35.6,2.4,30.11,NW,307,12.8,13.2,24,0.00,,SCT060,0.00,VWS V14.01,2013-04-02 22:47:00,
2013-04-02 17:54:00,35.4,0.4,30.11,NNW,342,7.6,13.2,22,0.00,,SCT060,0.00,VWS V14.01,2013-04-02 22:54:00,
2013-04-02 17:59:00,35.2,0.2,30.11,NW,325,12.3,12.3,22,0.00,,SCT060,0.00,VWS V14.01,2013-04-02 22:59:00,
2013-04-02 18:05:00,34.9,-0.1,30.11,North,357,10.5,10.5,22,0.00,,CLR,0.00,VWS V14.01,2013-04-02 23:05:00,
2013-04-02 18:12:00,34.9,2.6,30.11,NW,321,3.1,8.1,25,0.00,,CLR,0.00,VWS V14.01,2013-04-02 23:12:00,
2013-04-02 18:17:00,34.9,2.6,30.11,NNW,331,7.6,12.8,25,0.00,,CLR,0.00,VWS V14.01,2013-04-02 23:17:00,
2013-04-02 18:22:00,34.7,2.5,30.11,NW,311,8.1,8.1,25,0.00,,CLR,0.00,VWS V14.01,2013-04-02 23:22:00,
2013-04-02 18:28:00,34.5,2.3,30.11,North,357,5.4,9.2,25,0.00,,CLR,0.00,VWS V14.01,2013-04-02 23:28:00,
2013-04-02 18:34:00,34.3,2.2,30.11,NNW,343,5.8,8.1,25,0.00,,CLR,0.00,VWS V14.01,2013-04-02 23:34:00,
2013-04-02 18:40:00,34.0,1.9,30.11,North,357,5.8,7.6,25,0.00,,CLR,0.00,VWS V14.01,2013-04-02 23:40:00,
2013-04-02 18:45:00,33.8,1.7,30.11,NNW,341,8.3,8.3,25,0.00,,CLR,0.00,VWS V14.01,2013-04-02 23:45:00,
2013-04-02 18:51:00,33.6,1.6,30.11,NNW,333,5.8,8.7,25,0.00,,CLR,0.00,VWS V14.01,2013-04-02 23:51:00,
2013-04-02 18:57:00,33.3,1.2,30.11,NNW,332,7.2,7.6,25,0.00,,CLR,0.00,VWS V14.01,2013-04-02 23:57:00,
2013-04-02 19:02:00,33.1,1.1,30.08,North,353,5.4,6.3,25,0.00,,CLR,0.00,VWS V14.01,2013-04-03 00:02:00,
2013-04-02 19:07:00,32.9,0.9,30.08,NNW,329,5.8,11.0,25,0.00,,CLR,0.00,VWS V14.01,2013-04-03 00:07:00,
2013-04-02 19:13:00,32.5,0.6,30.11,North,357,8.3,8.3,25,0.00,,CLR,0.00,VWS V14.01,2013-04-03 00:13:00,
2013-04-02 19:19:00,32.4,0.5,30.11,North,353,5.8,5.8,25,0.00,,CLR,0.00,VWS V14.01,2013-04-03 00:19:00,
2013-04-02 19:25:00,32.2,0.3,30.11,North,353,7.2,7.2,25,0.00,,CLR,0.00,VWS V14.01,2013-04-03 00:25:00,
2013-04-02 19:31:00,31.8,0.0,30.08,NNW,341,4.0,8.1,25,0.00,,CLR,0.00,VWS V14.01,2013-04-03 00:31:00,
2013-04-02 19:36:00,31.6,-0.1,30.08,NNW,327,5.8,6.3,25,0.00,,CLR,0.00,VWS V14.01,2013-04-03 00:36:00,
2013-04-02 19:42:00,31.5,-0.3,30.08,NW,314,5.4,6.3,25,0.00,,CLR,0.00,VWS V14.01,2013-04-03 00:42:00,
2013-04-02 19:48:00,31.3,-0.4,30.11,NNW,345,6.3,7.6,25,0.00,,CLR,0.00,VWS V14.01,2013-04-03 00:48:00,
2013-04-02 19:54:00,31.1,-0.6,30.11,NW,313,5.8,8.3,25,0.00,,CLR,0.00,VWS V14.01,2013-04-03 00:54:00,
2013-04-02 20:01:00,31.1,-0.6,30.14,NW,313,3.6,6.3,25,0.00,,CLR,0.00,VWS V14.01,2013-04-03 01:01:00,
2013-04-02 20:07:00,30.9,-0.8,30.14,North,10,8.1,9.2,25,0.00,,CLR,0.00,VWS V14.01,2013-04-03 01:07:00,
2013-04-02 20:12:00,30.9,-0.8,30.14,NNW,332,5.8,6.3,25,0.00,,CLR,0.00,VWS V14.01,2013-04-03 01:12:00,
2013-04-02 20:17:00,30.7,-0.9,30.11,North,357,5.8,6.3,25,0.00,,CLR,0.00,VWS V14.01,2013-04-03 01:17:00,
2013-04-02 20:24:00,30.6,-1.1,30.11,NW,322,4.0,5.8,25,0.00,,CLR,0.00,VWS V14.01,2013-04-03 01:24:00,
2013-04-02 20:29:00,30.4,-1.2,30.14,NW,320,3.6,5.8,25,0.00,,CLR,0.00,VWS V14.01,2013-04-03 01:29:00,
2013-04-02 20:34:00,30.2,-1.4,30.14,NW,319,4.0,6.3,25,0.00,,CLR,0.00,VWS V14.01,2013-04-03 01:34:00,
2013-04-02 20:40:00,30.2,-1.4,30.14,NNW,331,4.0,4.0,25,0.00,,CLR,0.00,VWS V14.01,2013-04-03 01:40:00,
2013-04-02 20:45:00,30.0,-1.5,30.11,NW,308,5.4,5.8,25,0.00,,CLR,0.00,VWS V14.01,2013-04-03 01:45:00,
2013-04-02 20:50:00,29.8,0.7,30.11,NW,313,5.8,6.3,28,0.00,,CLR,0.00,VWS V14.01,2013-04-03 01:50:00,
2013-04-02 20:57:00,29.8,0.7,30.11,NW,320,5.4,5.4,28,0.00,,CLR,0.00,VWS V14.01,2013-04-03 01:57:00,
2013-04-02 21:02:00,29.8,0.7,30.11,NNW,331,4.9,6.7,28,0.00,,CLR,0.00,VWS V14.01,2013-04-03 02:02:00,
2013-04-02 21:08:00,29.8,0.7,30.11,NW,315,5.4,6.3,28,0.00,,CLR,0.00,VWS V14.01,2013-04-03 02:08:00,
2013-04-02 21:14:00,29.8,0.7,30.14,NW,315,4.0,5.4,28,0.00,,CLR,0.00,VWS V14.01,2013-04-03 02:14:00,
2013-04-02 21:19:00,29.7,0.6,30.14,NW,312,3.6,6.3,28,0.00,,CLR,0.00,VWS V14.01,2013-04-03 02:19:00,
2013-04-02 21:24:00,29.7,0.6,30.14,North,349,6.7,7.6,28,0.00,,CLR,0.00,VWS V14.01,2013-04-03 02:24:00,
2013-04-02 21:29:00,29.7,0.6,30.14,NNW,344,5.8,8.3,28,0.00,,CLR,0.00,VWS V14.01,2013-04-03 02:29:00,
2013-04-02 21:35:00,29.8,-1.7,30.14,WNW,300,8.1,8.1,25,0.00,,CLR,0.00,VWS V14.01,2013-04-03 02:35:00,
2013-04-02 21:41:00,29.8,0.7,30.14,NNW,328,5.4,5.4,28,0.00,,CLR,0.00,VWS V14.01,2013-04-03 02:41:00,
2013-04-02 21:47:00,29.7,0.6,30.14,NW,314,4.9,5.4,28,0.00,,CLR,0.00,VWS V14.01,2013-04-03 02:47:00,
2013-04-02 21:52:00,29.7,0.6,30.14,NW,316,3.6,7.6,28,0.00,,CLR,0.00,VWS V14.01,2013-04-03 02:52:00,
2013-04-02 21:58:00,29.5,0.4,30.14,NW,325,5.4,5.4,28,0.00,,CLR,0.00,VWS V14.01,2013-04-03 02:58:00,
2013-04-02 22:04:00,29.5,0.4,30.14,NW,311,4.5,5.4,28,0.00,,CLR,0.00,VWS V14.01,2013-04-03 03:04:00,
2013-04-02 22:09:00,29.3,0.2,30.14,WNW,298,3.1,4.9,28,0.00,,CLR,0.00,VWS V14.01,2013-04-03 03:09:00,
2013-04-02 22:14:00,29.1,0.1,30.14,NW,304,4.0,4.0,28,0.00,,CLR,0.00,VWS V14.01,2013-04-03 03:14:00,
2013-04-02 22:20:00,28.9,-0.1,30.14,WNW,283,5.4,5.4,28,0.00,,CLR,0.00,VWS V14.01,2013-04-03 03:20:00,
2013-04-02 22:25:00,28.9,-0.1,30.14,NW,304,4.9,5.4,28,0.00,,CLR,0.00,VWS V14.01,2013-04-03 03:25:00,
2013-04-02 22:30:00,28.8,-0.2,30.17,NW,308,3.1,5.8,28,0.00,,CLR,0.00,VWS V14.01,2013-04-03 03:30:00,
2013-04-02 22:35:00,28.8,-0.2,30.17,NW,312,5.8,6.3,28,0.00,,CLR,0.00,VWS V14.01,2013-04-03 03:35:00,
2013-04-02 22:40:00,28.8,-0.2,30.17,NW,309,5.8,5.8,28,0.00,,CLR,0.00,VWS V14.01,2013-04-03 03:40:00,
2013-04-02 22:46:00,28.8,-0.2,30.17,NW,310,3.6,4.0,28,0.00,,CLR,0.00,VWS V14.01,2013-04-03 03:46:00,
2013-04-02 22:52:00,28.8,-0.2,30.17,WNW,302,3.1,4.0,28,0.00,,CLR,0.00,VWS V14.01,2013-04-03 03:52:00,
2013-04-02 22:58:00,28.6,-0.4,30.17,NW,313,3.6,3.6,28,0.00,,CLR,0.00,VWS V14.01,2013-04-03 03:58:00,
2013-04-02 23:00:00,28.6,-0.4,30.17,NW,304,4.9,4.9,28,0.00,,CLR,0.00,VWS V14.01,2013-04-03 04:00:00,
2013-04-02 23:01:00,28.6,-0.4,30.17,WNW,303,3.6,4.9,28,0.00,,CLR,0.00,VWS V14.01,2013-04-03 04:01:00,
2013-04-02 23:03:00,28.6,-0.4,30.17,WNW,302,3.1,4.9,28,0.00,,CLR,0.00,VWS V14.01,2013-04-03 04:03:00,
2013-04-02 23:08:00,28.4,-0.5,30.17,WNW,294,5.8,5.8,28,0.00,,CLR,0.00,VWS V14.01,2013-04-03 04:08:00,
2013-04-02 23:14:00,28.4,-0.5,30.17,NW,306,5.4,5.4,28,0.00,,CLR,0.00,VWS V14.01,2013-04-03 04:14:00,
2013-04-02 23:20:00,28.2,1.5,30.17,WNW,303,4.0,4.0,31,0.00,,CLR,0.00,VWS V14.01,2013-04-03 04:20:00,
2013-04-02 23:22:00,28.2,1.5,30.17,NW,304,3.6,6.3,31,0.00,,CLR,0.00,VWS V14.01,2013-04-03 04:22:00,
2013-04-02 23:28:00,28.2,1.5,30.17,WNW,299,4.0,5.4,31,0.00,,CLR,0.00,VWS V14.01,2013-04-03 04:28:00,
2013-04-02 23:33:00,28.0,1.3,30.17,WNW,296,2.7,5.8,31,0.00,,CLR,0.00,VWS V14.01,2013-04-03 04:33:00,
2013-04-02 23:39:00,27.9,1.2,30.17,WNW,295,2.2,3.1,31,0.00,,CLR,0.00,VWS V14.01,2013-04-03 04:39:00,
2013-04-02 23:45:00,27.9,1.2,30.17,WNW,297,4.0,4.0,31,0.00,,CLR,0.00,VWS V14.01,2013-04-03 04:45:00,
2013-04-02 23:50:00,27.7,1.0,30.17,NW,308,4.0,4.0,31,0.00,,CLR,0.00,VWS V14.01,2013-04-03 04:50:00,
2013-04-02 23:56:00,27.7,1.0,30.17,WNW,300,5.4,5.8,31,0.00,,CLR,0.00,VWS V14.01,2013-04-03 04:56:00,